Regional Weather Roundup
Issued by NWS

Home | Current Version | Previous Version | Graphics & Text | Print | Product List | Glossary On
Versions: 1 2 3 4 5 6 7 8 9 10 11 12 13 14 15 16 17 18 19 20 21 22 23 24 25 26 27 28 29 30 31 32 33 34 35 36 37 38 39 40 41 42 43 44 45 46 47 48 49 50
000
ASUS45 KSLC 230310
RWRUT

UTAH REGIONAL WEATHER ROUNDUP
NATIONAL WEATHER SERVICE SALT LAKE CITY UT
900 PM MDT TUE AUG 22 2017

UTZ001>011-023>025-230400-

NORTHERN UTAH

CITY           SKY/WX    TMP DP  RH WIND       PRES   REMARKS
BRIGHAM CITY   CLOUDY    79  49  35 S17G23    30.16R
HILL AFB       PTCLDY    76  46  34 S14       30.19S
LOGAN          CLOUDY    81  43  26 S13       30.13R
OGDEN          CLOUDY    78  48  34 S12       30.16R
SALT LAKE CITY CLOUDY    79  48  33 SE8       30.14S
TOOELE VALLEY  LGT RAIN  64  59  82 S10       30.19R
WENDOVER       CLOUDY    80  45  28 SW6       30.13R
HEBER CITY     CLOUDY    61  52  72 CALM      30.27R
WEST JORDAN    CLOUDY    71  57  60 SE8       30.20R

$$

UTZ011>015-024>027-230400-

CENTRAL/NORTHEAST UTAH

CITY           SKY/WX    TMP DP  RH WIND       PRES   REMARKS
PROVO AIRPORT  LGT RAIN  68  59  73 S16G22    30.25R
MOAB/CANYONLAN PTCLDY    79  47  32 NE29G37   30.12R
DELTA          MOCLDY    77  46  33 NE21      30.17R
PRICE          RAIN      69  50  50 S17       30.28R
RICHFIELD      CLEAR     63  54  72 CALM      30.24R
ROOSEVELT      CLEAR     70  48  46 SW6       30.22R
VERNAL         CLOUDY    75  44  33 W8        30.20R

$$

UTZ013>016-019>022-027-230400-

SOUTHERN UTAH

CITY           SKY/WX    TMP DP  RH WIND       PRES   REMARKS
BRYCE CANYON   CLEAR     60  48  64 N7        30.39R
CEDAR CITY     PTCLDY    74  43  32 S9        30.21R
MILFORD        PTCLDY    74  47  38 N6        30.17R
ST GEORGE      CLOUDY    91  43  18 W9        30.01R
HANKSVILLE     CLEAR     77  36  22 CALM      30.13R
KANAB          CLEAR     72  45  37 N7        30.20R
BLANDING       PTCLDY    73  43  34 NW6       30.32R

$$

REGIONAL REPORTS     COLORADO/ARIZONA

CITY           SKY/WX    TMP DP  RH WIND       PRES   REMARKS
CRAIG, CO      CLOUDY    65  39  38 S7        30.28R
GRAND JUNCTION PTCLDY    74  50  42 SW7       30.22R
RIFLE, CO      CLOUDY    72  45  37 SE12      30.26F
MONTROSE, CO   CLEAR     69  48  47 SE6       30.31R
CORTEZ, CO     CLOUDY    67  53  61 E6        30.25R
COLORADO CITY    N/A     77  48  36 N3        30.19S
PAGE, AZ       MOCLDY    86  44  23 NE5       30.10R
GRAND CANYON   MOCLDY    65  50  58 CALM      30.32R
KINGMAN, AZ    CLEAR     82  48  30 CALM      30.06R
FLAGSTAFF, AZ  CLEAR     61  48  62 CALM      30.35R

$$

REGIONAL REPORTS    NEVADA/IDAHO/WYOMING

CITY           SKY/WX    TMP DP  RH WIND       PRES   REMARKS
LAS VEGAS, NV  PTCLDY    96  45  17 E7        29.93R HX  92
ELY, NY        PTCLDY    63  44  50 SW7       30.27S
ELKO, NV       CLOUDY    68  48  48 VRB3      30.21S
POCATELLO, ID  CLEAR     72  36  26 S9        30.10R
BURLEY, ID     MOCLDY    72  54  53 SW6       30.07R
FORT BRIDGER,  CLEAR     68  37  32 SW16      30.36S
EVANSTON, WY   CLOUDY    66  40  38 S12       30.35S
ROCK SPRINGS,  CLOUDY    73  30  20 W10       30.29R
KEMMERER, WY     N/A    N/A N/A N/A W6        30.35R

$$



USA.gov is the U.S. government's official web portal to all federal, state and local government web resources and services.